Regional Weather Roundup
Issued by NWS

Home | Current Version | Previous Version | Graphics & Text | Print | Product List | Glossary On
Versions: 1 2 3 4 5 6 7 8 9 10 11 12 13 14 15 16 17 18 19 20 21 22 23 24 25 26 27
000
ASUS45 KCYS 191610
RWRWY

WYOMING REGIONAL WEATHER ROUNDUP
NATIONAL WEATHER SERVICE CHEYENNE WY
1000 AM MDT TUE SEP 19 2017

NOTE:  "FAIR" INDICATES FEW OR NO CLOUDS BELOW 12,000 FEET
WITH NO SIGNIFICANT WEATHER AND/OR OBSTRUCTIONS TO VISIBILITY.

WYZ001-191700-
YELLOWSTONE NATIONAL PARK

CITY           SKY/WX    TMP DP  RH WIND       PRES   REMARKS
LK YELLOWSTONE   N/A     30  30 100 VRB5      29.78R WCI  25
W YELLOWSTONE  NOT AVBL

$$
WYZ002>013-054>058-071-098>099-191700-
NORTHERN WYOMING

CITY           SKY/WX    TMP DP  RH WIND       PRES   REMARKS
JACKSON        CLOUDY    37  31  78 S20G25    29.82R WCI  27
CODY           FAIR      43  38  82 N13       29.67S
GREYBULL       CLOUDY    49  43  80 NW9G20    29.63S
WORLAND        LGT RAIN  50  47  89 N10       29.65R
SHERIDAN       CLOUDY    47  43  86 NW15      29.67R
BUFFALO        PTSUNNY   49  41  74 N17G26    29.64F
GILLETTE       PTSUNNY   60  45  57 S13       29.59R
HULETT         PTSUNNY   59  43  55 S5        29.60F
NEWCASTLE      FAIR      55  41  58 CALM      29.63F

$$
WYZ014>020-022>026-101>103-191700-
CENTRAL WYOMING

CITY           SKY/WX    TMP DP  RH WIND       PRES   REMARKS
BIG PINEY      FLURRIES  37  32  82 NW9       29.87S WCI  30
PINEDALE       CLOUDY    36  32  87 W9        29.86F WCI  29
DUBOIS         CLOUDY    37  30  75 NW13      29.76S WCI  29
LANDER           N/A    N/A N/A N/A MISG      29.74R
RIVERTON       CLOUDY    46  37  71 NW24G32   29.73R
CASPER         CLOUDY    57  41  55 W6        29.68S
DOUGLAS          N/A     62  42  47 NW9       29.67F

$$
WYZ021-027>030-104>119-191700-
SOUTHERN WYOMING

CITY           SKY/WX    TMP DP  RH WIND       PRES   REMARKS
EVANSTON       LGT SNOW  35  34  96 NW10      29.93R FOG     WCI  27
KEMMERER       LGT SNOW  34  32  93 NW24      29.89R WCI  21
FORT BRIDGER   LGT SNOW  35  35 100 NW13G18   29.96R WCI  26
ROCK SPRINGS   RAIN      38  36  92 W17       29.88R FOG     WCI  28
DIXON          PTSUNNY   65  20  17 S31G44    29.80F
RAWLINS        PTSUNNY   58  37  45 W21       29.78R
SARATOGA       FAIR      64  23  20 SW32G43   29.76R
LARAMIE        FAIR      66  18  15 SW18G31   29.78F
CHEYENNE       FAIR      69  20  15 SW13      29.74F
TORRINGTON     FAIR      60  50  69 SE7       29.62F
PINE BLUFFS    FAIR      55  43  62 S7        29.70F

$$




USA.gov is the U.S. government's official web portal to all federal, state and local government web resources and services.